Total_Precipitation_Accumulation
0.77 0.88 0.87 0.66 0.60 0.56 0.49 0.47 0.37 0.24 0.21 0.22 0.22 0.20 0.12 0.07 0.08 0.08 0.07 0.08 0.08 0.07 0.08 0.13 0.19 0.27 0.32 0.32 0.38 0.51 0.63 0.76 0.81 0.88 0.87 0.85 0.92 0.93 0.87 0.80 0.83 0.94 0.91 0.83
0.86 0.70 0.45 0.36 0.39 0.49 0.52 0.51 0.39 0.25 0.23 0.29 0.26 0.20 0.12 0.08 0.08 0.08 0.08 0.07 0.07 0.08 0.09 0.14 0.19 0.25 0.29 0.33 0.38 0.49 0.63 0.74 0.78 0.78 0.84 0.83 0.87 0.89 0.92 0.88 0.88 0.95 1.02 0.96
0.70 0.43 0.31 0.41 0.46 0.57 0.56 0.46 0.34 0.29 0.28 0.33 0.35 0.30 0.15 0.09 0.08 0.10 0.11 0.11 0.10 0.10 0.11 0.15 0.19 0.23 0.25 0.30 0.34 0.40 0.56 0.75 0.81 0.79 0.89 0.97 1.04 1.09 1.08 1.01 0.94 0.96 0.99 0.97
0.56 0.32 0.34 0.49 0.50 0.53 0.54 0.31 0.27 0.31 0.42 0.44 0.40 0.47 0.22 0.13 0.11 0.11 0.13 0.15 0.14 0.12 0.13 0.18 0.21 0.25 0.27 0.32 0.36 0.38 0.48 0.64 0.84 0.87 0.89 0.95 1.00 1.02 1.06 1.00 0.93 0.93 0.99 1.02
0.63 0.34 0.37 0.50 0.40 0.38 0.40 0.28 0.31 0.38 0.49 0.51 0.39 0.50 0.30 0.16 0.15 0.12 0.11 0.12 0.13 0.13 0.16 0.20 0.24 0.29 0.33 0.39 0.46 0.46 0.50 0.58 0.78 0.84 0.84 0.89 0.93 0.95 1.02 1.06 1.00 0.97 1.01 1.07
0.49 0.35 0.37 0.35 0.29 0.31 0.37 0.43 0.51 0.56 0.77 0.80 0.32 0.36 0.35 0.28 0.26 0.19 0.14 0.14 0.14 0.15 0.18 0.22 0.27 0.35 0.39 0.44 0.55 0.55 0.58 0.58 0.70 0.86 0.85 0.82 0.86 0.89 0.94 1.00 1.06 1.07 1.05 1.06
0.64 0.48 0.42 0.35 0.42 0.50 0.61 0.89 1.28 1.30 1.20 0.65 0.15 0.22 0.33 0.29 0.26 0.21 0.16 0.18 0.17 0.17 0.20 0.25 0.31 0.39 0.40 0.43 0.57 0.59 0.60 0.63 0.64 0.79 0.85 0.80 0.80 0.83 0.84 0.91 0.94 1.01 1.07 1.06
0.74 0.62 0.47 0.42 0.51 0.63 0.62 0.77 1.00 0.91 0.56 0.23 0.12 0.19 0.25 0.23 0.18 0.15 0.15 0.17 0.19 0.17 0.18 0.23 0.28 0.35 0.39 0.40 0.50 0.60 0.63 0.65 0.64 0.72 0.86 0.88 0.85 0.87 0.82 0.87 0.93 0.93 0.95 0.97
0.73 0.45 0.29 0.30 0.28 0.36 0.51 0.55 0.49 0.65 0.42 0.25 0.19 0.17 0.18 0.16 0.12 0.13 0.15 0.15 0.18 0.20 0.21 0.24 0.26 0.30 0.32 0.38 0.45 0.52 0.64 0.70 0.70 0.70 0.83 0.99 1.04 0.96 0.87 0.83 0.88 0.90 0.88 0.90
0.81 0.57 0.27 0.31 0.41 0.43 0.46 0.52 0.65 0.89 0.69 0.36 0.20 0.21 0.30 0.25 0.20 0.17 0.15 0.14 0.14 0.19 0.25 0.28 0.28 0.31 0.32 0.34 0.41 0.46 0.58 0.69 0.74 0.71 0.78 0.93 1.15 1.17 1.03 0.97 0.87 0.85 0.85 0.85
0.72 0.76 0.45 0.43 0.61 0.58 0.49 0.63 0.81 0.85 0.60 0.44 0.27 0.26 0.32 0.28 0.23 0.17 0.13 0.11 0.13 0.16 0.20 0.25 0.27 0.34 0.37 0.36 0.40 0.45 0.51 0.61 0.69 0.67 0.72 0.82 0.99 1.22 1.23 1.13 1.01 0.88 0.83 0.81
0.72 0.89 0.65 0.40 0.38 0.40 0.46 0.54 0.67 0.84 0.62 0.35 0.30 0.25 0.18 0.16 0.17 0.14 0.12 0.10 0.11 0.15 0.17 0.20 0.24 0.32 0.37 0.38 0.40 0.43 0.48 0.56 0.63 0.65 0.68 0.77 0.85 1.03 1.25 1.19 1.06 0.94 0.87 0.84
1.11 1.32 1.05 0.74 0.62 0.54 0.62 0.55 0.53 0.59 0.59 0.39 0.32 0.21 0.11 0.09 0.12 0.10 0.10 0.10 0.12 0.14 0.17 0.20 0.25 0.30 0.34 0.40 0.43 0.42 0.45 0.52 0.57 0.64 0.68 0.70 0.79 0.87 0.98 1.13 1.09 0.99 0.93 0.88
1.28 1.37 1.00 0.82 0.67 0.62 0.59 0.42 0.41 0.60 0.72 0.39 0.19 0.15 0.10 0.11 0.15 0.14 0.13 0.13 0.13 0.13 0.18 0.23 0.26 0.28 0.32 0.39 0.46 0.45 0.48 0.51 0.50 0.57 0.65 0.64 0.65 0.73 0.78 0.90 1.08 1.09 1.01 0.92
1.09 1.10 0.56 0.34 0.25 0.27 0.31 0.27 0.26 0.40 0.42 0.33 0.17 0.15 0.16 0.15 0.16 0.18 0.19 0.19 0.17 0.15 0.17 0.24 0.27 0.28 0.33 0.42 0.50 0.53 0.49 0.45 0.42 0.47 0.55 0.61 0.65 0.72 0.75 0.76 0.87 1.05 1.03 0.90
1.02 0.96 0.48 0.28 0.20 0.21 0.23 0.20 0.21 0.24 0.23 0.21 0.14 0.15 0.17 0.15 0.13 0.15 0.18 0.19 0.21 0.20 0.21 0.24 0.29 0.28 0.34 0.42 0.51 0.60 0.53 0.47 0.40 0.43 0.50 0.56 0.65 0.78 0.80 0.75 0.79 0.89 0.98 0.94
0.97 0.96 0.77 0.41 0.21 0.36 0.40 0.27 0.25 0.24 0.22 0.25 0.26 0.22 0.17 0.17 0.17 0.19 0.21 0.22 0.24 0.24 0.26 0.27 0.30 0.34 0.39 0.42 0.49 0.58 0.56 0.51 0.44 0.44 0.50 0.55 0.58 0.72 0.79 0.79 0.83 0.86 0.90 0.97
0.72 0.88 1.08 0.68 0.49 0.74 0.37 0.19 0.20 0.23 0.26 0.27 0.25 0.20 0.19 0.20 0.20 0.20 0.23 0.26 0.28 0.27 0.27 0.28 0.32 0.38 0.39 0.41 0.43 0.49 0.52 0.50 0.48 0.48 0.53 0.58 0.55 0.60 0.73 0.83 0.84 0.85 0.86 0.88
0.40 0.79 1.26 1.07 0.77 0.44 0.21 0.18 0.22 0.28 0.31 0.24 0.20 0.17 0.16 0.15 0.14 0.14 0.15 0.19 0.26 0.27 0.27 0.29 0.32 0.37 0.38 0.38 0.37 0.44 0.50 0.48 0.50 0.55 0.58 0.58 0.53 0.54 0.64 0.73 0.81 0.83 0.84 0.80
0.42 0.77 1.38 1.22 0.92 0.44 0.28 0.18 0.15 0.21 0.39 0.23 0.18 0.19 0.17 0.17 0.22 0.18 0.14 0.18 0.25 0.23 0.23 0.27 0.30 0.31 0.34 0.37 0.37 0.42 0.47 0.43 0.47 0.51 0.57 0.54 0.48 0.45 0.46 0.56 0.71 0.78 0.80 0.77
0.77 1.17 1.40 1.07 0.84 0.38 0.26 0.20 0.18 0.36 0.45 0.23 0.19 0.20 0.18 0.21 0.26 0.21 0.18 0.21 0.24 0.19 0.20 0.23 0.26 0.29 0.36 0.39 0.35 0.39 0.45 0.45 0.46 0.50 0.55 0.50 0.46 0.46 0.45 0.51 0.64 0.73 0.81 0.83
0.66 0.89 0.88 0.80 0.88 0.49 0.26 0.27 0.40 0.46 0.26 0.18 0.16 0.16 0.16 0.15 0.14 0.14 0.16 0.21 0.22 0.18 0.17 0.16 0.20 0.25 0.31 0.34 0.34 0.40 0.46 0.47 0.49 0.50 0.47 0.47 0.48 0.48 0.49 0.52 0.60 0.71 0.80 0.86
0.51 0.64 0.63 0.58 0.52 0.37 0.31 0.38 0.38 0.29 0.20 0.15 0.15 0.14 0.13 0.13 0.13 0.15 0.17 0.19 0.21 0.19 0.18 0.17 0.19 0.22 0.28 0.31 0.34 0.41 0.47 0.44 0.47 0.47 0.45 0.43 0.46 0.48 0.49 0.55 0.62 0.71 0.78 0.82
0.33 0.36 0.45 0.42 0.29 0.24 0.25 0.27 0.26 0.21 0.17 0.14 0.15 0.14 0.13 0.13 0.13 0.15 0.17 0.18 0.20 0.20 0.19 0.18 0.20 0.23 0.29 0.32 0.33 0.39 0.43 0.40 0.38 0.39 0.42 0.40 0.44 0.49 0.53 0.58 0.62 0.67 0.77 0.84
0.29 0.32 0.39 0.38 0.24 0.20 0.20 0.21 0.21 0.18 0.16 0.15 0.15 0.15 0.14 0.14 0.15 0.16 0.18 0.19 0.20 0.23 0.22 0.21 0.22 0.24 0.30 0.34 0.37 0.40 0.39 0.37 0.36 0.36 0.42 0.48 0.50 0.54 0.58 0.61 0.63 0.67 0.69 0.83
0.21 0.27 0.35 0.35 0.24 0.25 0.24 0.21 0.20 0.19 0.18 0.19 0.19 0.18 0.15 0.16 0.19 0.18 0.18 0.19 0.21 0.24 0.26 0.24 0.24 0.26 0.31 0.36 0.42 0.43 0.37 0.34 0.36 0.40 0.43 0.50 0.54 0.56 0.57 0.56 0.59 0.68 0.70 0.74